This demonstration page uses our WeatherBlox Daily Observations layout. Learn more.

Left ArrowRight Arrow

53.62937, 11.41316

Hourly Observations for May 10, 2021

Temp ( °F °C ) Dew Point ( °F °C ) Humidity (%) Winds ( mph kmh ) Pressure ( in mb ) Visibility ( mi km ) Precip ( " mm )
6:20 am 06:20 Mostly Sunny 63 17 52 11 68 68 SSE 6 9 29.62 1003 7 11 N/A
6:50 am 06:50 Mostly Sunny 63 17 52 11 68 68 SSE 6 9 29.62 1003 7 11 N/A
7:20 am 07:20 Mostly Sunny 64 18 52 11 64 64 SSE 6 9 29.62 1003 7 11 N/A
7:50 am 07:50 Mostly Sunny 64 18 52 11 64 64 SE 5 7 29.62 1003 7 11 N/A
8:20 am 08:20 Mostly Sunny 64 18 52 11 64 64 SE 6 9 29.62 1003 7 11 N/A
8:50 am 08:50 Mostly Sunny 64 18 52 11 64 64 SSE 6 9 29.62 1003 30 48 N/A
9:20 am 09:20 Mostly Sunny 64 18 52 11 64 64 SE 8 13 29.62 1003 7 11 N/A
9:50 am 09:50 Mostly Sunny 66 19 54 12 64 64 SSE 8 13 29.62 1003 7 11 N/A
10:20 am 10:20 Mostly Sunny 68 20 54 12 60 60 ESE 7 11 29.62 1003 30 48 N/A
10:50 am 10:50 Mostly Sunny 72 22 55 13 57 57 S 3 6 29.62 1003 7 11 N/A
11:20 am 11:20 Mostly Sunny 73 23 57 14 57 57 SSE 8 13 29.65 1004 30 48 N/A
11:50 am 11:50 Mostly Sunny 77 25 55 13 47 47 ESE 7 11 29.65 1004 7 11 N/A
12:20 pm 12:20 Mostly Sunny 77 25 55 13 47 47 SE 9 15 29.65 1004 7 11 N/A
12:50 pm 12:50 Mostly Sunny 79 26 52 11 39 39 SE 8 13 29.65 1004 7 11 N/A
1:20 pm 13:20 Mostly Sunny 82 28 54 12 37 37 VRB 8 13 29.62 1003 7 11 N/A
1:50 pm 13:50 Mostly Sunny 81 27 54 12 39 39 SE 9 15 29.62 1003 7 11 N/A
2:20 pm 14:20 Mostly Sunny 79 26 54 12 42 42 SE 9 15 29.65 1004 7 11 N/A
2:50 pm 14:50 Mostly Sunny 81 27 52 11 37 37 SE 7 11 29.65 1004 7 11 N/A
3:20 pm 15:20 Mostly Sunny 79 26 52 11 39 39 SE 7 11 29.65 1004 7 11 N/A
3:50 pm 15:50 Mostly Sunny 75 24 55 13 50 50 SW 8 13 29.68 1005 7 11 N/A
4:20 pm 16:20 Mostly Sunny 73 23 55 13 53 53 WSW 10 17 29.68 1005 7 11 N/A
4:50 pm 16:50 Mostly Sunny 72 22 55 13 57 57 WSW 10 17 29.71 1006 7 11 N/A
5:20 pm 17:20 Mostly Sunny 70 21 55 13 60 60 WSW 9 15 29.74 1007 7 11 N/A
5:50 pm 17:50 Mostly Sunny 70 21 52 11 53 53 WSW 9 15 29.74 1007 7 11 N/A
6:20 pm 18:20 Mostly Sunny 66 19 55 13 68 68 W 6 9 29.77 1008 7 11 N/A
6:50 pm 18:50 Mostly Sunny 64 18 54 12 68 68 VRB 5 7 29.80 1009 7 11 N/A
7:20 pm 19:20 Mostly Sunny 64 18 52 11 64 64 VRB 5 7 29.80 1009 7 11 N/A
7:50 pm 19:50 Mostly Sunny 63 17 50 10 64 64 VRB 3 6 29.80 1009 7 11 N/A
8:20 pm 20:20 Mostly Sunny 63 17 52 11 68 68 VRB 2 4 29.82 1010 30 48 N/A
8:50 pm 20:50 Mostly Sunny 63 17 50 10 64 64 VRB 2 4 29.82 1010 7 11 N/A
9:20 pm 21:20 Mostly Clear 61 16 50 10 68 68 VRB 2 4 29.83 1010 7 11 N/A
9:50 pm 21:50 Mostly Clear 61 16 50 10 68 68 VRB 2 4 29.83 1010 7 11 N/A

Powered by AerisWeather